Location: Jefferson
(30.9666°N, 81.7901°W)
Time: 19:59:14
(UTC+00:00)

ACS3 Solar Sail - Pass Details

Date: 21 September 2024
Orbit: 960 x 1036 km, 97.4° (Epoch: 09 October)

Event Time Altitude Azimuth Distance (km) Brightness Sun altitude
Exits shadow 00:15:28 13° 80° (E) 2,629 3.5 -11.5°
Drops below altitude 10° 00:20:01 10° 36° (NE) 2,842 4.0 -12.5°
Enters shadow 01:35:59 -37° 169° (S) 9,145 6.8 -28.3°
